{"data":{"norad_id":61746,"intl_designator":"2024-199M","name":"COLIBRI-S (RS67S)","alt_names":[],"object_type":"PAYLOAD","status":"ACTIVE","operator":null,"country":"CIS","launch_date":"2024-11-04","launch_site_code":"VOSTO","launch_vehicle":null,"mission":null,"orbit_class":"UNKNOWN","rcs_meters":null,"size_class":null,"mass_kg":null,"dimensions":null,"purposes":["comms"],"wikipedia_slug":null,"has_3d_model":false,"image_url":null,"decayed_at":null,"tle_current":{"epoch":"2026-09-19T22:07:39.025344Z","epoch_age_seconds":64405,"freshness":"FRESH","line1":"1 61746U 24199M   26262.92197946  .00017979  00000+0  30532-3 0  9992","line2":"2 61746  97.2796 137.8103 0005759 306.0674  54.0045 15.51507676152088","mean_motion":15.51507676,"eccentricity":0.0005759,"inclination_deg":97.2796,"raan_deg":137.8103,"arg_perigee_deg":306.0674,"mean_anomaly_deg":54.0045,"bstar":0.00030532,"rev_number":15208,"period_min":92.812947191632,"perigee_km":408.41279565635,"apogee_km":416.23404797019,"semimajor_km":6790.4604218133,"source":"CELESTRAK","updated_at":"2026-09-20T09:00:45.240334Z"}}}